EST,Max TemperatureF,Mean TemperatureF,Min TemperatureF,Max Dew PointF,MeanDew PointF,Min DewpointF,Max Humidity, Mean Humidity, Min Humidity, Max Sea Level PressureIn, Mean Sea Level PressureIn, Min Sea Level PressureIn, Max VisibilityMiles, Mean VisibilityMiles, Min VisibilityMiles, Max Wind SpeedMPH, Mean Wind SpeedMPH, Max Gust SpeedMPH,PrecipitationIn, CloudCover, Events, WindDirDegrees
2011-12-1,37,29,21,28,23,18,92,68,47,30.30,30.11,29.81,10,10,10,9,5,17,0.00,4,,306
2011-12-2,37,28,19,30,26,17,92,82,62,30.48,30.32,30.24,10,9,2,8,1,,0.00,6,Snow,347
2011-12-3,39,29,19,25,21,15,92,70,47,30.68,30.60,30.50,10,10,6,9,4,,0.00,3,,333
2011-12-4,48,31,14,28,22,10,92,77,44,30.56,30.43,30.32,10,10,10,5,1,,0.00,0,,192
2011-12-5,53,39,25,37,31,23,92,81,54,30.33,30.26,30.15,10,9,6,4,0,,0.00,2,,60
2011-12-6,46,41,36,46,42,33,100,94,87,30.12,30.00,29.94,10,4,1,7,1,,0.19,8,Rain,329
2011-12-7,43,38,33,41,37,32,100,94,89,29.94,29.75,29.56,10,8,2,6,2,,0.50,8,Rain-Snow,336
2011-12-8,33,24,15,32,24,12,96,86,72,30.17,29.75,29.46,10,4,0,17,6,31,0.40,6,Fog-Snow,311
2011-12-9,36,28,21,29,26,20,96,78,64,30.29,30.21,30.16,10,10,5,12,3,20,0.00,7,Snow,222
2011-12-10,36,23,10,30,20,8,93,76,49,30.40,30.22,30.08,10,9,2,10,4,20,0.00,6,Snow,313
2011-12-11,30,20,10,18,12,7,92,78,47,30.56,30.50,30.40,10,10,9,7,1,,0.00,4,,190
2011-12-12,45,26,7,27,17,4,93,86,37,30.52,30.40,30.35,10,4,0,4,0,,0.02,2,Fog,340
2011-12-13,35,22,9,29,19,5,96,83,70,30.42,30.35,30.29,10,7,0,4,0,,0.00,6,Fog,350
2011-12-14,35,30,24,31,29,23,100,91,78,30.41,30.34,30.24,10,5,1,5,0,,0.00,7,Snow,150
2011-12-15,44,37,30,42,35,28,100,94,81,30.23,29.72,29.55,10,4,0,9,3,,0.28,8,Fog-Rain-Snow,166
2011-12-16,46,38,28,43,30,21,100,77,64,30.03,29.77,29.48,10,8,2,13,6,29,0.18,8,Rain-Snow,294
2011-12-17,28,17,6,23,14,2,86,72,55,30.23,30.09,29.97,10,7,1,12,4,17,0.00,6,Snow,332
2011-12-18,19,10,0,3,-3,-8,88,70,29,30.32,30.26,30.21,10,10,10,6,0,,0.00,0,,320
2011-12-19,37,18,0,32,17,-6,93,79,63,30.22,29.87,29.70,10,9,2,9,1,,0.01,7,Snow,319
2011-12-20,34,18,1,32,12,-3,93,70,46,30.22,30.05,29.74,10,8,2,13,6,24,0.02,4,Snow,310
2011-12-21,33,16,1,31,20,-2,100,89,74,30.19,29.84,29.58,10,7,2,4,0,,0.23,8,Rain-Snow,340
2011-12-22,39,33,27,36,32,26,96,90,65,30.10,29.86,29.55,10,8,2,10,2,22,0.01,6,Rain,280
2011-12-23,35,24,14,32,26,8,100,87,69,30.24,29.96,29.85,10,4,1,9,1,22,0.19,7,Snow,308
2011-12-24,16,6,-6,9,-1,-12,87,73,47,30.53,30.42,30.18,10,10,10,7,2,,0.00,1,,337
2011-12-25,19,7,-5,16,9,-9,88,82,73,30.48,30.08,29.80,10,4,1,5,1,,0.02,7,Snow,336
2011-12-26,28,17,6,24,15,3,95,84,64,30.23,29.99,29.79,10,7,2,13,2,18,0.02,6,Snow,294
2011-12-27,43,21,1,39,20,-2,93,85,72,30.12,29.80,29.33,10,8,2,18,2,26,0.18,4,Rain-Snow,154
2011-12-28,45,28,12,43,25,4,100,80,61,29.56,29.29,29.16,10,6,0,21,6,29,0.17,8,Fog-Rain-Snow,278
2011-12-29,18,12,5,0,-3,-6,69,56,40,30.01,29.75,29.54,10,10,9,14,9,26,0.00,3,,307
2011-12-30,23,12,1,18,9,-2,84,74,54,30.15,30.08,30.01,10,8,1,5,1,,0.00,6,Snow,338
2011-12-31,37,30,24,36,30,19,100,90,80,30.10,29.90,29.79,10,9,2,7,0,,0.00,8,Snow,345